sat.trackr.live / text

‹ back to catalog

STARLINK-36984

NORAD 68168 · 2026-050B

PAYLOAD ACTIVE UNKNOWN

§ Identity

Operator
Country
US
Launch date
2026-03-14
Launch site
AFETR
Launch vehicle
Mass (kg)
RCS (m²)

Purposes: comms

External: N2YO · Heavens-Above · Gunter

§ Orbital elements

Epoch: 2026-09-19T22:27:26.229600Z

Period
93.85 min
Inclination
53.1580°
Eccentricity
0.0001565
Mean motion
15.34405052 rev/d
Perigee alt
461.6 km
Apogee alt
463.8 km
Semi-major
6,840.8 km
B*
5.5118e-4
RAAN
80.2202°
Arg perigee
85.4859°
Mean anomaly
274.6322°
Rev number
3,048

§ Raw data

STARLINK-369841 68168U 26050B   26262.93572025  .00018295  00000+0  55118-3 0  99902 68168  53.1580  80.2202 0001565  85.4859 274.6322 15.34405052 30483

JSON: /api/v1/satellites/68168 · /tle

For live sub-satellite position, see the globe view (requires WebGL).

§ Visibility from observer

Set your observer location to see the next 7 days of passes ≥ 10°. The values pass through the URL so the page stays shareable.

No JS? Fill the form by hand. The geolocation button needs JavaScript.